Hourly Data Report for July 06, 2021

DRYDEN REGIONAL
ONTARIO
Current Station Operator: NAVCAN

49°49'39.000" N
92°44'39.000" W
412.70 m
6032125
71527
YHD

Download Data

Hourly Data (July 2021)
Hourly Data Report for July 6, 2021
TIME
LST
Temp Definition
°C
Dew Point Definition
°C
Rel Hum Definition
%
Precip. Amount Definition
mm

Wind Dir Definition
10's deg

Wind Spd Definition
km/h
Visibility Definition
km
Stn Press Definition
kPa
Hmdx Definition


Wind Chill Definition


Weather Definition


00:00 11.8 7.6 75 0.0 3 15 16.1 96.96     LegendNANA
01:00 11.4 7.4 76 0.0 3 15 16.1 96.99     LegendNANA
02:00 11.0 7.1 77 0.0 1 13 16.1 97.03     LegendNANA
03:00 11.0 7.2 77 0.0 1 13 16.1 97.02     LegendNANA
04:00 10.9 7.6 80 0.0 4 13 16.1 97.09     LegendNANA
05:00 10.7 7.4 80 0.0 6 22 16.1 97.09     LegendNANA
06:00 10.4 7.1 80 0.0 7 17 16.1 97.20     LegendNANA
07:00 10.5 7.5 82 0.0 7 15 16.1 97.24     LegendNANA
08:00 10.9 7.5 79 0.0 4 18 16.1 97.27     LegendNANA
09:00 11.6 7.8 77 0.0 8 13 16.1 97.31     LegendNANA
10:00 12.3 6.8 69 0.0 5 21 16.1 97.34     LegendNANA
11:00 14.0 6.1 59 0.0 3 13 16.1 97.31     LegendNANA
12:00 15.5 5.4 51 0.0 6 13 16.1 97.29     LegendNANA
13:00 16.3 6.5 52 0.0 7 11 16.1 97.25     LegendNANA
14:00 17.4 4.7 43 0.0 3 17 16.1 97.21     LegendNANA
15:00 18.0 3.5 38 0.0 8 15 16.1 97.19     LegendNANA
16:00 18.5 2.5 34 0.0 6 18 16.1 97.15     LegendNANA
17:00 18.4 2.3 34 0.0 7 17 16.1 97.13     LegendNANA
18:00 18.1 3.4 37 0.0 3 9 16.1 97.13     LegendNANA
19:00 16.9 2.4 38 0.0 5 13 16.1 97.14     LegendNANA
20:00 14.9 3.0 45 0.0 6 11 16.1 97.17     LegendNANA
21:00 13.6 2.9 48 0.0 8 8 16.1 97.23     LegendNANA
22:00 12.2 3.2 54 0.0 7 8 16.1 97.26     LegendNANA
23:00 11.0 4.5 64 0.0 6 5 16.1 97.25     LegendNANA

Notes on Data Quality.

Legend

  • E = Estimated
  • M = Missing
  • NA = Not Available*
  • [empty] = Indicates an unobserved value
Date modified: